CFG302 EDDF-FSIA

Flight info

Callsign CFG302
Flight time N/A
Altitude 23000
Route CINDY6F CINDY Z74 LAMPU Z54 NOMBO Y161 MAH L173 OTT/N0472F330 M867 RADIZ DCT GORPA DCT PETAK/N0469F350 DCT DIMIS DCT SALUN N705 BOPIX N710 TAKRI P751 LXR M999 JDW G650 RASKA/N0484F360 G650 ULONI/N0485F350 UV790 ZULAC/N0480F370 UV790 SB UR775 HARGA/N0476F380 UM651 MURAL/N0479F370 UG651 KUSUB UM651 ESTOK/N0477F380 UM651 IMSES/N0478F370 DCT XABAL T154 UNBED UNBED1E
Aircraft A339/H-SADE1E2E3GHIJ1J3J5M1P2RWXY/LB2D1

Departure

Time 2026-05-04 03:29
Airport Frankfurt Main Airport (EDDF)

Arrival

Time N/A
Airport Seychelles International Airport (FSIA)
Time Latitude Longitude Altitude Speed Heading
2026-05-04 02:59 50.04835 8.57627 379 ft 0 kts 206°
2026-05-04 03:15 50.04840 8.57630 379 ft 2 kts 206°
2026-05-04 03:15 50.04853 8.57640 378 ft 2 kts 206°
2026-05-04 03:15 50.04862 8.57647 378 ft 2 kts 200°
2026-05-04 03:16 50.04876 8.57651 379 ft 2 kts 174°
2026-05-04 03:16 50.04887 8.57648 379 ft 2 kts 160°
2026-05-04 03:16 50.04892 8.57645 379 ft 2 kts 153°
2026-05-04 03:16 50.04904 8.57631 379 ft 2 kts 132°
2026-05-04 03:17 50.04911 8.57617 379 ft 0 kts 116°
2026-05-04 03:17 50.04912 8.57611 379 ft 0 kts 115°
2026-05-04 03:20 50.04911 8.57614 379 ft 2 kts 115°
2026-05-04 03:20 50.04901 8.57648 379 ft 6 kts 116°
2026-05-04 03:20 50.04874 8.57739 379 ft 11 kts 114°
2026-05-04 03:20 50.04840 8.57856 378 ft 13 kts 123°
2026-05-04 03:21 50.04761 8.57922 378 ft 14 kts 173°
2026-05-04 03:21 50.04689 8.57819 375 ft 17 kts 250°
2026-05-04 03:21 50.04645 8.57638 374 ft 19 kts 250°
2026-05-04 03:21 50.04599 8.57444 374 ft 19 kts 250°
2026-05-04 03:22 50.04554 8.57257 376 ft 19 kts 250°
2026-05-04 03:22 50.04506 8.57056 375 ft 21 kts 250°
2026-05-04 03:22 50.04456 8.56844 374 ft 21 kts 250°
2026-05-04 03:22 50.04403 8.56621 369 ft 22 kts 250°
2026-05-04 03:23 50.04350 8.56400 366 ft 23 kts 250°
2026-05-04 03:23 50.04295 8.56170 364 ft 22 kts 250°
2026-05-04 03:23 50.04240 8.55943 361 ft 23 kts 250°
2026-05-04 03:23 50.04186 8.55714 359 ft 22 kts 250°
2026-05-04 03:24 50.04135 8.55495 360 ft 21 kts 250°
2026-05-04 03:24 50.04083 8.55286 358 ft 21 kts 249°
2026-05-04 03:24 50.04032 8.55071 354 ft 22 kts 250°
2026-05-04 03:24 50.03978 8.54845 352 ft 22 kts 250°
2026-05-04 03:25 50.03923 8.54616 347 ft 23 kts 249°
2026-05-04 03:25 50.03867 8.54391 347 ft 22 kts 243°
2026-05-04 03:25 50.03793 8.54193 348 ft 20 kts 249°
2026-05-04 03:25 50.03747 8.54000 351 ft 18 kts 250°
2026-05-04 03:26 50.03706 8.53832 353 ft 16 kts 250°
2026-05-04 03:26 50.03666 8.53666 352 ft 17 kts 250°
2026-05-04 03:26 50.03622 8.53488 352 ft 18 kts 249°
2026-05-04 03:26 50.03575 8.53294 348 ft 21 kts 250°
2026-05-04 03:27 50.03532 8.53112 347 ft 22 kts 250°
2026-05-04 03:27 50.03476 8.52887 345 ft 16 kts 248°
2026-05-04 03:27 50.03432 8.52725 345 ft 16 kts 248°
2026-05-04 03:27 50.03401 8.52605 344 ft 7 kts 233°
2026-05-04 03:28 50.03363 8.52590 343 ft 4 kts 180°
2026-05-04 03:28 50.03249 8.52592 341 ft 45 kts 180°
2026-05-04 03:28 50.02705 8.52599 333 ft 109 kts 179°
2026-05-04 03:28 50.01757 8.52609 337 ft 162 kts 180°
2026-05-04 03:29 50.00546 8.52613 659 ft 180 kts 180°
2026-05-04 03:29 49.99295 8.52620 1252 ft 183 kts 181°
2026-05-04 03:29 49.98039 8.52667 1973 ft 180 kts 179°
2026-05-04 03:29 49.96790 8.52784 2417 ft 184 kts 179°
2026-05-04 03:30 49.95458 8.52913 2664 ft 198 kts 180°
2026-05-04 03:30 49.94037 8.53025 2956 ft 211 kts 180°
2026-05-04 03:30 49.92543 8.53132 3232 ft 226 kts 180°
2026-05-04 03:30 49.91156 8.53228 3478 ft 238 kts 180°
2026-05-04 03:31 49.89457 8.53344 3767 ft 253 kts 180°
2026-05-04 03:31 49.87918 8.53451 4140 ft 261 kts 180°
2026-05-04 03:31 49.86026 8.53586 4768 ft 263 kts 180°
2026-05-04 03:31 49.84242 8.53713 5353 ft 265 kts 180°
2026-05-04 03:32 49.82389 8.53842 5916 ft 267 kts 180°
2026-05-04 03:32 49.80589 8.54004 6450 ft 270 kts 174°
2026-05-04 03:32 49.78858 8.55120 6934 ft 280 kts 141°
2026-05-04 03:32 49.77795 8.57447 7405 ft 289 kts 110°
2026-05-04 03:33 49.77521 8.60278 7878 ft 293 kts 92°
2026-05-04 03:33 49.77576 8.63660 8403 ft 298 kts 89°
2026-05-04 03:33 49.77619 8.66825 8908 ft 300 kts 91°
2026-05-04 03:33 49.77605 8.69138 9284 ft 302 kts 93°
2026-05-04 03:34 49.77527 8.72661 9833 ft 304 kts 94°
2026-05-04 03:34 49.77443 8.75363 10225 ft 308 kts 95°
2026-05-04 03:34 49.77295 8.79553 10546 ft 323 kts 95°
2026-05-04 03:34 49.77170 8.82982 10778 ft 335 kts 95°
2026-05-04 03:35 49.77036 8.86636 11006 ft 348 kts 95°
2026-05-04 03:35 49.76953 8.88906 11148 ft 356 kts 95°
2026-05-04 03:35 49.76644 8.97325 11633 ft 382 kts 95°
2026-05-04 03:36 49.76519 9.00679 11831 ft 391 kts 95°
2026-05-04 03:36 49.76401 9.03849 12149 ft 396 kts 95°
2026-05-04 03:36 49.75965 9.09990 12918 ft 398 kts 101°
2026-05-04 03:36 49.75326 9.14685 13509 ft 398 kts 109°
2026-05-04 03:37 49.74280 9.18662 14015 ft 397 kts 121°
2026-05-04 03:37 49.72773 9.22218 14525 ft 396 kts 131°
2026-05-04 03:37 49.70972 9.25446 15028 ft 398 kts 134°
2026-05-04 03:37 49.69138 9.28617 15514 ft 401 kts 134°
2026-05-04 03:38 49.67281 9.31838 16008 ft 403 kts 134°
2026-05-04 03:38 49.65432 9.35074 16494 ft 406 kts 134°
2026-05-04 03:38 49.63565 9.38296 16969 ft 408 kts 136°
2026-05-04 03:38 49.61470 9.41270 17438 ft 408 kts 143°
2026-05-04 03:39 49.59470 9.43554 17853 ft 409 kts 148°
2026-05-04 03:39 49.58202 9.44784 18098 ft 409 kts 150°
2026-05-04 03:39 49.54513 9.48165 18781 ft 414 kts 152°
2026-05-04 03:39 49.52024 9.50417 19215 ft 417 kts 152°
2026-05-04 03:40 49.49513 9.52693 19646 ft 420 kts 152°
2026-05-04 03:40 49.47027 9.54952 20059 ft 423 kts 151°
2026-05-04 03:40 49.44469 9.57279 20481 ft 426 kts 151°
2026-05-04 03:40 49.41922 9.59596 20882 ft 428 kts 152°
2026-05-04 03:41 49.39348 9.61936 21285 ft 431 kts 152°
2026-05-04 03:41 49.36792 9.64294 21666 ft 434 kts 149°
2026-05-04 03:41 49.34347 9.66908 22036 ft 438 kts 146°
2026-05-04 03:41 49.31986 9.69894 22421 ft 442 kts 141°
2026-05-04 03:42 49.29760 9.73175 22782 ft 445 kts 138°
2026-05-04 03:42 49.27752 9.76253 23099 ft 448 kts 137°
2026-05-04 03:42 49.25409 9.79861 23445 ft 451 kts 137°